Salem, OR

5:38 AM PST on February 12, 2016 (GMT -0800)
McNary

Weather History for KSLE - November, 2014

Change the Weather History Date:

Sunday, November 30, 2014

  Actual Average Record
Temperature  
Mean Temperature 35 °F 42 °F  
Max Temperature 42 °F 49 °F 60 °F (1898)
Min Temperature 28 °F 36 °F 17 °F (1969)
Degree Days  
Heating Degree Days 30 23  
Month to date heating degree days 557 584  
Since 1 July heating degree days 766 1117  
Cooling Degree Days 0 0  
Month to date cooling degree days 0 0  
Year to date cooling degree days 605 290  
Moisture  
Dew Point 21 °F    
Average Humidity 63    
Maximum Humidity 85    
Minimum Humidity 41    
Precipitation  
Precipitation 0.00 in 0.26 in 1.54 in (1984)
Month to date precipitation 4.87 6.50  
Year to date precipitation 34.69 32.81  
Sea Level Pressure  
Sea Level Pressure 30.06 in    
Wind  
Wind Speed 10 mph (NNW)    
Max Wind Speed 17 mph    
Max Gust Speed 22 mph    
Visibility 10 miles    
Events      
T = Trace of Precipitation, MM = Missing Value Source: NWS Daily Summary

Daily Weather History Graph

Daily Weather History Graph

Search for Another Location

Airport or City:

Trip Planner

Search our weather history database for the weather conditions in past years. The results will help you decide how hot, cold, wet, or windy it might be!

Date:

Astronomy

Nov. 30, 2014 Rise Set
Actual Time 7:28 AM PST 4:32 PM PST
Civil Twilight 6:55 AM PST 5:05 PM PST
Nautical Twilight 6:19 AM PST 5:42 PM PST
Astronomical Twilight 5:43 AM PST 6:17 PM PST
Moon 1:20 PM PST (11/30) 12:49 AM PST (11/30)
Length of Visible Light 10h 09m
Length of Day
9h 03m
Waxing Gibbous, 66% of the Moon is Illuminated
Nov 30
Waxing Gibbous
Dec 6
Full
Dec 14
Last Quarter
Dec 21
New
Dec 28
First Quarter

Hourly Weather History & Observations

Time (PST) Temp. Windchill Dew Point Humidity Pressure Visibility Wind Dir Wind Speed Gust Speed Precip Events Conditions
12:42 AM 32.0 °F 23.0 °F 27.0 °F 82% 30.08 in 10.0 mi North 11.5 mph - N/A   Overcast
12:56 AM 32.0 °F 23.0 °F 27.0 °F 82% 30.09 in 10.0 mi North 11.5 mph - N/A   Overcast
1:23 AM 32.0 °F 23.6 °F 28.0 °F 85% 30.08 in 10.0 mi North 10.4 mph - N/A   Overcast
1:56 AM 32.0 °F 22.5 °F 27.0 °F 82% 30.09 in 10.0 mi North 12.7 mph - N/A   Overcast
2:56 AM 30.9 °F 25.2 °F 26.1 °F 82% 30.08 in 10.0 mi NNW 5.8 mph - N/A   Overcast
3:31 AM 30.0 °F 23.2 °F 25.0 °F 82% 30.07 in 10.0 mi NW 6.9 mph - N/A   Overcast
3:49 AM 28.9 °F 22.8 °F 25.0 °F 85% 30.06 in 10.0 mi NNW 5.8 mph - N/A   Scattered Clouds
3:56 AM 28.9 °F 21.9 °F 25.0 °F 85% 30.07 in 10.0 mi NW 6.9 mph - N/A   Partly Cloudy
4:56 AM 28.9 °F 21.9 °F 24.1 °F 82% 30.06 in 10.0 mi NNW 6.9 mph - N/A   Clear
5:56 AM 28.9 °F 20.4 °F 23.0 °F 78% 30.06 in 10.0 mi NNW 9.2 mph - N/A   Clear
6:56 AM 28.9 °F 21.1 °F 21.9 °F 75% 30.06 in 10.0 mi NW 8.1 mph - N/A   Clear
7:56 AM 28.9 °F 20.4 °F 19.9 °F 69% 30.06 in 10.0 mi NNW 9.2 mph - N/A   Clear
8:56 AM 32.0 °F 23.0 °F 19.0 °F 59% 30.07 in 10.0 mi North 11.5 mph - N/A   Clear
9:56 AM 34.0 °F 23.8 °F 19.0 °F 54% 30.06 in 10.0 mi North 16.1 mph - N/A   Clear
10:56 AM 36.0 °F 26.3 °F 19.9 °F 52% 30.05 in 10.0 mi North 16.1 mph - N/A   Clear
11:56 AM 39.0 °F 31.0 °F 21.0 °F 49% 30.03 in 10.0 mi North 13.8 mph - N/A   Clear
12:56 PM 39.9 °F 31.8 °F 21.0 °F 47% 30.01 in 10.0 mi North 15.0 mph - N/A   Clear
1:56 PM 41.0 °F 33.9 °F 19.9 °F 43% 30.00 in 10.0 mi North 12.7 mph - N/A   Clear
2:56 PM 41.0 °F 32.8 °F 21.0 °F 45% 29.99 in 10.0 mi North 16.1 mph - N/A   Clear
3:56 PM 37.9 °F 30.0 °F 19.0 °F 47% 30.00 in 10.0 mi North 12.7 mph - N/A   Clear
4:56 PM 35.1 °F 27.9 °F 18.0 °F 50% 30.01 in 10.0 mi NNW 9.2 mph - N/A   Clear
5:56 PM 32.0 °F 24.8 °F 18.0 °F 56% 30.03 in 10.0 mi NNW 8.1 mph - N/A   Clear
6:56 PM 32.0 °F 24.2 °F 17.1 °F 54% 30.04 in 10.0 mi NNW 9.2 mph - N/A   Clear
7:56 PM 30.9 °F 23.5 °F 17.1 °F 57% 30.06 in 10.0 mi NNW 8.1 mph - N/A   Clear
8:56 PM 30.9 °F 23.5 °F 18.0 °F 59% 30.07 in 10.0 mi NNW 8.1 mph - N/A   Mostly Cloudy
9:56 PM 30.9 °F 24.3 °F 18.0 °F 59% 30.08 in 10.0 mi NNW 6.9 mph - N/A   Mostly Cloudy
10:56 PM 30.9 °F 25.2 °F 19.0 °F 61% 30.09 in 10.0 mi NNW 5.8 mph - N/A   Overcast
11:56 PM 30.9 °F 26.2 °F 19.0 °F 61% 30.10 in 10.0 mi NW 4.6 mph - N/A   Overcast